Wind_Gust
13 13 13 13 13 14 16 18 17 17 13 12 13 10 11 9 7 7 6 5 6 9 10 10 9 10 13 12 10 10 11 12 13 13 14 15 14 14 17 16 15 15
14 13 13 14 15 15 15 16 16 16 13 11 11 10 10 8 6 5 5 6 9 10 11 9 9 11 12 10 9 13 14 13 14 12 15 15 14 14 15 15 14 15
13 13 14 14 16 15 15 14 14 13 13 11 10 9 8 8 9 6 5 7 9 10 11 12 12 11 9 8 11 13 14 14 14 12 14 14 13 15 14 13 15 16
13 13 14 14 15 15 14 15 13 12 11 12 10 9 7 5 5 5 6 7 9 9 9 11 10 8 7 10 13 14 14 14 13 12 14 13 13 14 14 12 14 15
13 14 13 13 13 13 14 15 13 11 11 10 8 7 7 4 5 6 7 7 8 9 9 8 8 6 8 12 13 15 14 14 12 12 13 13 13 14 13 14 15 16
13 14 12 14 13 14 14 14 13 11 8 7 6 5 5 5 6 8 11 11 8 9 8 7 7 6 10 12 14 13 13 14 12 13 14 14 12 13 13 14 15 17
14 14 14 15 15 14 13 12 13 10 8 5 3 4 5 6 9 11 10 10 11 11 11 9 9 9 10 12 13 13 13 13 12 13 14 12 13 13 12 13 15 16
15 14 15 15 15 13 14 13 10 7 5 4 3 5 12 12 13 12 14 14 15 15 13 13 11 10 9 12 13 13 12 12 13 14 13 11 11 13 12 13 12 15
15 14 15 15 14 12 15 10 7 6 5 9 11 11 12 15 15 14 14 15 15 14 13 12 11 11 10 12 12 12 12 10 11 12 13 12 13 12 11 9 12 13
15 14 16 14 14 13 13 9 7 7 10 13 11 13 16 15 15 15 15 16 15 15 13 11 12 12 13 12 12 12 12 12 11 11 11 11 12 11 11 11 10 11
14 15 16 14 13 13 11 8 7 12 12 15 15 14 12 16 16 14 16 16 16 13 12 12 10 11 13 11 11 12 12 13 13 12 11 10 10 11 11 10 9 10
14 15 15 14 13 10 8 7 11 13 13 12 15 15 15 16 16 15 15 15 14 12 11 11 11 12 12 11 10 11 13 14 14 13 13 11 10 10 10 10 11 11
15 15 15 14 11 9 8 10 13 13 15 13 13 16 16 17 16 16 13 14 12 11 11 11 12 12 12 11 11 12 13 14 14 14 12 12 10 8 8 11 13 13
16 14 15 12 10 9 9 13 15 14 14 13 14 17 16 16 16 16 13 13 11 12 10 11 13 14 11 10 11 12 14 13 12 12 13 12 11 12 11 10 9 12
16 15 12 13 10 9 13 14 15 15 14 14 15 16 16 17 16 15 15 14 12 12 12 13 15 13 10 9 13 13 13 14 13 13 13 13 12 12 12 15 13 11
16 15 16 14 8 9 12 14 15 16 16 16 16 16 16 16 15 14 14 14 14 13 12 13 12 9 10 14 11 13 12 13 14 13 12 12 12 12 13 12 11 11
17 17 17 11 9 10 13 16 17 16 17 17 16 16 16 15 14 14 12 12 13 14 14 12 11 11 14 15 16 15 14 13 13 13 12 13 12 12 12 11 10 10
20 19 17 12 10 11 15 17 17 17 17 16 17 16 15 15 15 13 12 11 13 14 13 11 10 10 16 16 16 16 13 15 12 12 13 12 12 12 11 10 11 12
17 18 16 14 12 12 16 17 17 17 16 16 16 15 14 16 14 14 12 10 14 15 12 10 8 9 15 16 16 16 15 13 13 13 15 13 12 12 12 11 12 14
14 13 14 14 14 15 16 17 17 16 15 15 16 15 16 15 14 13 11 11 12 13 12 10 8 8 15 17 16 16 15 13 14 15 14 14 13 12 12 12 12 14
14 11 12 15 16 15 16 17 17 15 15 15 16 15 15 15 14 13 11 10 10 11 12 11 8 8 12 15 15 15 15 12 13 14 15 13 12 11 12 12 11 13
14 12 15 15 16 16 18 17 15 16 16 14 14 13 12 13 12 12 12 10 8 10 13 11 7 9 10 15 16 16 15 13 13 14 14 13 12 10 10 10 10 12
14 16 16 15 16 17 17 16 16 15 14 14 15 13 13 13 12 11 10 11 9 9 12 9 7 9 10 15 16 15 12 12 12 13 12 13 12 9 9 9 10 11
17 17 16 17 17 17 16 15 15 14 14 14 17 15 14 13 13 13 11 9 10 9 9 11 6 7 11 14 15 14 12 13 11 12 10 11 9 8 9 10 12 17
18 17 17 17 17 16 17 17 16 15 14 15 15 14 14 13 13 13 11 9 8 8 10 11 8 7 11 15 16 14 12 11 13 12 13 11 10 9 8 10 11 11
18 18 17 18 18 16 16 16 15 17 16 16 14 15 14 12 12 13 13 10 7 7 9 6 10 7 10 17 16 15 14 13 11 14 12 11 9 9 10 8 8 9
Wind_Speed
5 6 6 6 5 6 7 7 5 7 6 7 7 6 6 4 3 3 2 2 4 6 6 6 5 5 5 5 4 6 6 7 7 7 8 8 8 8 9 9 8 7
7 8 7 6 6 6 6 6 7 8 7 7 6 6 5 4 3 3 2 4 6 6 5 5 4 4 4 5 6 7 7 7 8 6 8 9 7 7 8 8 7 6
7 8 8 8 8 8 8 6 7 7 7 7 5 5 5 3 3 3 3 4 6 5 5 4 4 4 4 5 7 7 7 8 8 7 8 8 7 8 7 6 7 8
6 7 8 8 8 8 7 8 6 7 6 6 5 5 4 3 3 3 4 4 5 5 4 4 4 3 4 7 8 8 8 8 7 7 8 7 7 7 7 6 7 8
8 7 7 7 7 7 7 8 7 6 6 6 5 4 4 3 3 4 4 4 5 4 4 4 3 4 5 7 8 8 8 8 7 7 7 7 6 7 6 7 8 9
6 6 7 7 6 7 7 7 6 5 5 5 4 3 3 3 4 5 4 4 4 4 4 3 3 4 6 8 8 7 8 8 7 7 7 7 6 6 6 7 8 9
7 7 7 6 6 6 7 6 5 5 5 3 2 1 3 4 5 5 5 6 6 5 5 5 5 6 6 7 8 8 7 8 7 7 7 6 6 8 7 7 8 8
7 6 7 6 7 6 6 5 4 4 3 3 2 3 5 7 7 6 5 7 7 6 5 5 6 6 6 7 8 8 7 6 7 7 6 6 6 7 7 6 6 8
7 7 7 7 7 5 6 5 4 4 4 5 6 7 7 8 7 7 6 7 7 6 6 6 7 7 6 7 7 7 7 6 6 6 6 6 7 7 7 6 7 7
7 7 8 7 6 6 6 4 4 4 6 8 7 8 9 7 7 7 7 7 8 7 6 6 7 7 8 7 7 7 7 7 6 6 6 6 7 6 6 6 6 7
8 8 9 7 6 5 5 4 5 7 7 8 8 8 7 8 7 6 8 7 7 7 7 7 7 7 8 7 6 7 7 7 6 6 6 6 6 6 6 6 6 5
8 8 8 8 7 5 5 5 7 8 8 7 9 9 8 7 8 6 7 8 7 6 7 7 7 7 7 7 6 7 7 7 6 6 6 6 6 6 6 6 6 4
8 7 8 8 6 5 5 6 8 8 9 8 7 9 9 8 7 9 6 8 6 6 7 7 7 7 7 7 7 7 7 8 8 8 7 6 4 4 4 4 5 4
6 7 7 6 4 4 6 8 8 8 8 8 8 9 9 8 9 9 6 7 6 7 6 6 7 7 7 6 6 6 7 7 7 7 7 6 6 6 6 6 5 4
6 6 6 4 3 5 8 9 8 8 8 8 8 8 7 8 8 8 9 9 7 7 7 6 7 6 4 5 7 7 7 8 7 7 7 6 6 6 5 5 5 4
7 6 6 4 4 6 8 9 9 9 9 9 9 9 8 8 8 7 8 8 9 8 7 7 6 4 7 11 9 7 7 7 7 7 6 5 5 5 6 6 4 4
7 7 4 4 4 6 8 9 9 9 9 9 9 9 8 7 8 9 7 7 8 8 8 7 6 5 12 12 13 13 9 7 7 6 5 5 5 5 5 4 4 4
8 6 4 3 5 7 8 9 9 10 10 9 9 9 7 7 8 8 7 7 7 8 8 6 5 7 13 13 13 13 11 8 6 6 5 5 4 5 4 4 4 5
9 6 4 4 5 6 7 8 9 10 10 9 9 8 7 8 7 7 7 6 8 9 7 5 4 8 13 14 14 13 13 10 6 5 6 5 5 4 4 4 4 5
9 6 5 6 7 7 8 9 9 9 8 8 8 8 8 7 7 7 6 7 7 8 7 5 5 7 13 14 14 13 12 9 5 6 6 5 5 4 4 5 4 5
8 6 5 7 8 8 8 9 9 9 9 8 8 8 8 8 7 7 6 6 6 7 7 6 4 5 11 13 12 12 11 8 6 5 6 5 4 4 4 4 4 4
8 6 6 8 9 9 9 9 9 9 9 7 7 7 6 6 5 6 6 6 5 6 8 6 3 5 9 13 13 11 10 6 5 6 5 5 5 4 4 4 3 4
6 6 7 9 10 10 10 9 9 9 8 7 8 7 7 6 5 5 4 5 5 6 8 6 4 4 9 12 12 11 8 6 5 5 5 5 4 4 4 4 4 4
5 7 9 10 10 11 10 9 8 7 8 7 9 8 7 6 6 6 4 4 6 5 5 7 5 4 9 12 12 11 8 6 5 6 4 4 4 4 4 4 5 11
6 8 9 10 10 10 10 10 9 8 7 7 7 7 6 6 5 6 5 4 4 5 7 7 5 4 8 12 12 10 8 4 5 5 5 4 5 5 4 5 5 6
7 9 9 10 10 9 9 9 8 8 8 8 7 7 7 6 5 6 6 4 3 4 5 4 6 4 6 14 13 11 10 7 5 6 5 4 4 4 6 5 5 5
Wind_Direction
129 117 122 117 115 123 128 125 123 113 108 105 106 114 113 121 120 113 115 64 56 57 71 80 82 80 77 73 74 74 72 71 69 62 58 56 51 47 46 39 38 38
130 123 120 114 110 110 112 119 123 117 114 110 117 119 120 123 132 121 99 64 63 88 94 89 84 88 86 80 77 80 75 71 68 59 61 55 47 46 44 39 39 32
130 124 126 126 126 123 121 120 119 119 120 132 129 114 118 133 113 81 77 84 96 97 94 93 88 88 88 84 83 84 81 73 69 58 61 56 49 48 42 42 40 38
120 123 124 123 125 125 126 121 117 120 126 124 126 121 122 124 108 80 77 98 103 99 96 94 102 87 81 82 89 86 82 74 71 66 63 57 52 53 46 43 45 42
125 121 121 122 123 124 124 120 123 130 129 123 106 101 119 121 99 97 112 105 105 107 101 100 89 74 71 81 91 88 81 79 69 67 67 63 51 54 47 46 45 44
112 119 124 125 128 127 121 121 130 126 114 113 121 126 126 104 108 137 124 92 65 62 56 45 47 50 71 86 87 88 90 83 75 72 69 65 60 52 52 47 46 44
123 124 122 119 117 119 119 124 120 115 113 106 83 52 87 108 121 105 88 87 78 65 63 57 55 55 75 93 91 91 86 88 83 76 73 64 62 56 49 47 44 44
123 122 121 120 118 119 121 120 113 104 94 64 46 33 89 93 103 98 95 91 85 72 63 63 65 68 76 89 95 92 86 86 89 82 76 67 62 60 48 44 44 43
125 124 122 119 120 127 126 117 109 88 69 85 88 90 90 98 97 96 93 90 85 74 69 63 64 70 76 88 88 90 90 87 89 89 84 75 68 60 53 45 43 39
125 128 123 124 127 138 130 121 108 80 89 99 101 101 95 86 89 95 89 87 85 77 71 70 68 73 77 78 87 92 94 95 93 90 86 79 73 65 56 51 46 39
134 135 133 134 136 149 139 125 97 97 104 105 101 93 96 96 84 82 87 81 81 81 77 69 68 74 78 77 76 82 89 92 92 91 84 79 74 69 64 59 51 47
142 143 140 139 151 156 146 119 101 111 104 99 104 99 90 87 93 80 87 87 83 80 79 78 72 74 77 81 87 90 88 84 85 83 79 76 74 69 65 59 55 39
149 146 138 147 160 151 136 105 114 115 108 106 103 104 103 99 90 90 76 86 82 79 76 79 78 73 76 78 82 84 85 86 81 77 73 70 63 60 53 55 51 38
146 136 141 158 147 136 106 116 119 111 108 108 104 100 101 101 101 96 88 80 78 77 73 76 78 75 74 80 81 84 86 79 79 78 76 70 65 57 51 41 28 18
138 141 146 155 129 103 116 121 117 111 108 105 102 101 98 98 98 100 98 87 76 76 74 68 71 71 77 93 93 83 83 79 75 73 73 72 63 55 44 38 26 10
140 139 158 130 116 108 119 120 116 114 111 108 107 106 104 102 97 91 90 95 91 79 72 69 67 63 85 88 91 98 87 85 79 72 71 68 66 57 42 30 17 7
140 153 136 120 106 114 123 122 120 118 114 111 109 106 103 100 97 93 89 88 89 88 80 71 64 77 90 89 90 92 92 87 89 81 72 68 64 63 51 32 14 15
141 154 120 104 95 122 126 122 121 117 115 114 111 106 101 100 93 94 95 94 91 85 82 79 73 83 91 90 90 89 92 92 89 89 82 73 67 62 51 37 30 32
149 148 130 106 108 123 126 123 119 115 115 116 113 114 109 100 104 100 94 94 93 92 86 78 80 84 94 93 92 91 92 94 90 95 91 83 73 70 59 48 39 42
160 140 142 123 129 133 127 122 118 117 118 116 115 110 108 106 102 101 100 94 96 98 98 90 82 93 102 98 96 96 99 100 98 93 90 84 80 72 65 55 43 50
165 152 142 133 137 137 127 122 121 119 119 121 120 122 121 120 119 111 104 102 102 105 103 92 80 109 120 111 109 106 103 101 97 94 89 87 82 78 73 64 46 50
167 157 140 138 140 135 128 127 126 126 124 122 114 108 107 105 98 102 109 105 104 106 100 94 79 106 143 128 120 115 106 98 98 93 90 81 70 64 67 66 61 50
162 151 143 141 142 134 131 131 128 123 121 122 117 122 124 119 121 114 117 113 100 94 99 97 90 102 151 143 129 121 106 98 97 89 80 75 63 54 49 50 57 60
159 150 145 146 142 137 134 131 127 123 126 129 128 132 127 130 125 112 103 107 107 97 102 106 94 103 153 154 141 134 124 116 105 97 81 77 64 44 42 42 41 50
157 149 147 147 140 137 136 135 133 130 124 117 119 118 123 124 117 111 104 91 101 105 95 98 101 101 153 157 145 142 128 118 109 99 90 70 76 55 36 41 27 33
151 147 148 144 137 133 133 129 125 121 125 121 120 121 122 117 111 112 109 96 88 92 84 92 102 92 145 148 144 145 138 126 123 108 106 101 75 78 61 31 28 25